When you browse on this site, cookies collect data to enhance your experience and personalize the content and advertising you see.
Visit our Privacy Policy to learn more. By continuing to use the site, you agree to this use of cookies and data.
  • In Hungary
  • List of Countries
  • For 7 days
  • Water Temperature
  • Satellite Maps
  • Weather Map
  • News
  • Weather Widgets
  • user-avatar
    Login

    Hourly Weather Kaifeng

    Today, 22 February, Friday

    Time Temperature Precipitation Wind Pressure Humidity
    00:00 +6°C° 0 mm 1 mps 763 mmHg 47%
    01:00 +6°C° 0 mm 1 mps 763 mmHg 49%
    02:00 +5°C° 0 mm 2 mps 762 mmHg 53%
    03:00 +5°C° 0 mm 2 mps 762 mmHg 55%
    04:00 +4°C° 0 mm 2 mps 762 mmHg 58%
    05:00 +4°C° 0 mm 2 mps 762 mmHg 60%
    06:00 +4°C° 0 mm 2 mps 762 mmHg 61%
    07:00 +4°C° 0 mm 2 mps 762 mmHg 61%
    08:00 +4°C° 0 mm 2 mps 762 mmHg 64%
    09:00 +6°C° 0 mm 2 mps 762 mmHg 57%
    10:00 +7°C° 0 mm 2 mps 763 mmHg 49%
    11:00 +9°C° 0 mm 2 mps 763 mmHg 41%
    12:00 +11°C° 0 mm 1 mps 762 mmHg 37%
    13:00 +12°C° 0 mm 1 mps 762 mmHg 32%
    14:00 +14°C° 0 mm 1 mps 762 mmHg 27%
    15:00 +14°C° 0 mm 1 mps 761 mmHg 26%
    16:00 +14°C° 0 mm 1 mps 761 mmHg 25%
    17:00 +14°C° 0 mm 1 mps 761 mmHg 24%
    18:00 +12°C° 0 mm 1 mps 762 mmHg 27%
    19:00 +11°C° 0 mm 1 mps 762 mmHg 30%
    20:00 +10°C° 0 mm 1 mps 763 mmHg 33%
    21:00 +9°C° 0 mm 1 mps 763 mmHg 34%
    22:00 +8°C° 0 mm 1 mps 763 mmHg 35%
    23:00 +8°C° 0 mm 1 mps 764 mmHg 37%

    Tomorrow, 23 February, Saturday

    Time Temperature Precipitation Wind Pressure Humidity
    00:00 +7°C° 0 mm 1 mps 764 mmHg 37%
    01:00 +5°C° 0 mm 2 mps 764 mmHg 38%
    02:00 +5°C° 0 mm 2 mps 764 mmHg 38%
    03:00 +4°C° 0 mm 2 mps 764 mmHg 38%
    04:00 +4°C° 0 mm 2 mps 764 mmHg 39%
    05:00 +3°C° 0 mm 2 mps 763 mmHg 39%
    06:00 +3°C° 0 mm 2 mps 764 mmHg 39%
    07:00 +3°C° 0 mm 2 mps 764 mmHg 39%
    08:00 +3°C° 0 mm 2 mps 764 mmHg 39%
    09:00 +5°C° 0 mm 3 mps 764 mmHg 33%
    10:00 +8°C° 0 mm 3 mps 764 mmHg 27%
    11:00 +10°C° 0 mm 3 mps 764 mmHg 21%
    12:00 +12°C° 0 mm 2 mps 764 mmHg 20%
    13:00 +13°C° 0 mm 2 mps 763 mmHg 18%
    14:00 +14°C° 0 mm 2 mps 762 mmHg 16%
    15:00 +14°C° 0 mm 2 mps 762 mmHg 16%
    16:00 +14°C° 0 mm 1 mps 762 mmHg 16%
    17:00 +14°C° 0 mm 1 mps 761 mmHg 16%
    18:00 +13°C° 0 mm 1 mps 762 mmHg 18%
    19:00 +11°C° 0 mm 1 mps 762 mmHg 20%
    20:00 +9°C° 0 mm 0 mps 762 mmHg 22%
    21:00 +8°C° 0 mm 0 mps 762 mmHg 23%
    22:00 +7°C° 0 mm 0 mps 763 mmHg 24%
    23:00 +7°C° 0 mm 0 mps 763 mmHg 25%

    Day after tomorrow, 24 February, Sunday

    Time Temperature Precipitation Wind Pressure Humidity
    00:00 +6°C° 0 mm 0 mps 762 mmHg 26%
    01:00 +7°C° 0 mm 1 mps 762 mmHg 27%
    02:00 +6°C° 0 mm 1 mps 762 mmHg 28%
    03:00 +6°C° 0 mm 1 mps 762 mmHg 29%
    04:00 +6°C° 0 mm 1 mps 761 mmHg 31%
    05:00 +4°C° 0 mm 0 mps 761 mmHg 32%
    06:00 +5°C° 0 mm 1 mps 761 mmHg 32%
    07:00 +6°C° 0 mm 1 mps 761 mmHg 33%
    08:00 +6°C° 0 mm 1 mps 761 mmHg 33%
    09:00 +8°C° 0 mm 1 mps 762 mmHg 31%
    10:00 +9°C° 0 mm 2 mps 762 mmHg 28%
    11:00 +12°C° 0 mm 2 mps 762 mmHg 25%
    12:00 +12°C° 0 mm 2 mps 761 mmHg 24%
    13:00 +13°C° 0 mm 2 mps 760 mmHg 23%
    14:00 +14°C° 0 mm 1 mps 760 mmHg 22%
    15:00 +14°C° 0 mm 1 mps 759 mmHg 22%
    16:00 +14°C° 0 mm 1 mps 759 mmHg 22%
    17:00 +14°C° 0 mm 1 mps 759 mmHg 22%
    18:00 +13°C° 0 mm 1 mps 759 mmHg 25%
    19:00 +12°C° 0 mm 1 mps 760 mmHg 29%
    20:00 +9°C° 0 mm 2 mps 760 mmHg 32%
    21:00 +9°C° 0 mm 2 mps 761 mmHg 34%
    22:00 +8°C° 0 mm 2 mps 761 mmHg 37%
    23:00 +7°C° 0 mm 2 mps 762 mmHg 39%

    25 February, Monday

    Time Temperature Precipitation Wind Pressure Humidity
    00:00 +8°C° 0 mm 1 mps 762 mmHg 41%
    01:00 +8°C° 0 mm 1 mps 762 mmHg 42%
    02:00 +7°C° 0 mm 1 mps 762 mmHg 43%
    03:00 +7°C° 0 mm 1 mps 761 mmHg 45%
    04:00 +7°C° 0 mm 1 mps 761 mmHg 46%
    05:00 +6°C° 0 mm 0 mps 761 mmHg 47%
    06:00 +7°C° 0 mm 1 mps 761 mmHg 47%
    07:00 +7°C° 0 mm 1 mps 762 mmHg 47%
    08:00 +6°C° 0 mm 2 mps 762 mmHg 47%
    09:00 +8°C° 0 mm 2 mps 763 mmHg 41%
    10:00 +10°C° 0 mm 3 mps 763 mmHg 35%
    11:00 +12°C° 0 mm 3 mps 763 mmHg 29%
    12:00 +13°C° 0 mm 3 mps 762 mmHg 27%
    13:00 +14°C° 0 mm 3 mps 762 mmHg 25%
    14:00 +16°C° 0 mm 3 mps 761 mmHg 23%
    15:00 +16°C° 0 mm 3 mps 761 mmHg 23%
    16:00 +16°C° 0 mm 3 mps 761 mmHg 23%
    17:00 +16°C° 0 mm 3 mps 760 mmHg 24%
    18:00 +14°C° 0 mm 2 mps 761 mmHg 27%
    19:00 +13°C° 0 mm 2 mps 761 mmHg 30%
    20:00 +12°C° 0 mm 2 mps 762 mmHg 33%
    21:00 +10°C° 0 mm 2 mps 762 mmHg 35%
    22:00 +10°C° 0 mm 2 mps 762 mmHg 37%
    23:00 +11°C° 0 mm 1 mps 763 mmHg 39%

    26 February, Tuesday

    Time Temperature Precipitation Wind Pressure Humidity
    00:00 +9°C° 0 mm 2 mps 763 mmHg 41%
    01:00 +9°C° 0 mm 2 mps 762 mmHg 43%
    02:00 +8°C° 0 mm 2 mps 762 mmHg 45%
    03:00 +8°C° 0 mm 2 mps 762 mmHg 49%
    04:00 +7°C° 0 mm 2 mps 762 mmHg 54%
    05:00 +6°C° 0 mm 2 mps 762 mmHg 59%
    06:00 +6°C° 0 mm 2 mps 762 mmHg 61%
    07:00 +6°C° 0 mm 2 mps 762 mmHg 63%
    08:00 +6°C° 0 mm 2 mps 763 mmHg 65%
    09:00 +8°C° 0 mm 2 mps 763 mmHg 57%
    10:00 +9°C° 0 mm 2 mps 763 mmHg 49%
    11:00 +10°C° 0 mm 2 mps 763 mmHg 42%
    12:00 +13°C° 0 mm 2 mps 763 mmHg 36%
    13:00 +13°C° 0 mm 3 mps 762 mmHg 30%
    14:00 +14°C° 0 mm 3 mps 761 mmHg 25%
    15:00 +14°C° 0 mm 3 mps 761 mmHg 25%
    16:00 +14°C° 0 mm 3 mps 760 mmHg 25%
    17:00 +14°C° 0 mm 4 mps 760 mmHg 25%
    18:00 +13°C° 0 mm 3 mps 760 mmHg 28%
    19:00 +12°C° 0 mm 3 mps 761 mmHg 32%
    20:00 +11°C° 0 mm 3 mps 761 mmHg 35%
    21:00 +12°C° 0 mm 2 mps 761 mmHg 38%
    22:00 +10°C° 0 mm 2 mps 762 mmHg 41%
    23:00 +9°C° 0 mm 2 mps 762 mmHg 45%

    27 February, Wednesday

    Time Temperature Precipitation Wind Pressure Humidity
    00:00 +9°C° 0 mm 2 mps 762 mmHg 48%
    01:00 +8°C° 0 mm 2 mps 761 mmHg 52%
    02:00 +7°C° 0 mm 2 mps 761 mmHg 55%
    03:00 +7°C° 0 mm 2 mps 761 mmHg 57%
    04:00 +7°C° 0 mm 1 mps 761 mmHg 60%
    05:00 +7°C° 0 mm 1 mps 761 mmHg 62%
    06:00 +7°C° 0 mm 1 mps 761 mmHg 62%
    07:00 +7°C° 0 mm 1 mps 761 mmHg 61%
    08:00 +7°C° 0 mm 1 mps 761 mmHg 61%
    09:00 +9°C° 0 mm 1 mps 761 mmHg 54%
    10:00 +10°C° 0 mm 2 mps 761 mmHg 47%
    11:00 +13°C° 0 mm 2 mps 762 mmHg 40%
    12:00 +14°C° 0 mm 2 mps 761 mmHg 36%
    13:00 +15°C° 0 mm 2 mps 760 mmHg 32%
    14:00 +16°C° 0 mm 1 mps 759 mmHg 27%
    15:00 +16°C° 0 mm 2 mps 759 mmHg 27%
    16:00 +16°C° 0 mm 2 mps 759 mmHg 27%
    17:00 +16°C° 0 mm 2 mps 758 mmHg 26%
    18:00 +15°C° 0 mm 2 mps 759 mmHg 29%
    19:00 +14°C° 0 mm 2 mps 759 mmHg 31%
    20:00 +12°C° 0 mm 2 mps 759 mmHg 34%
    21:00 +12°C° 0 mm 2 mps 759 mmHg 36%
    22:00 +10°C° 0 mm 2 mps 760 mmHg 38%
    23:00 +9°C° 0 mm 2 mps 760 mmHg 40%
    Show more